| time (UTC) | temp C | wind direction | speed KPH | gust KPH | rain 1hr cm | rain 24hr cm | rain mn cm | humidity % | barometer mb |
| 20260905135516 | 21 | 78 | 4.8 | 9.7 | 0.00 | 0.69 | 0.00 | 95 | 1013.0 |
| 20260905135017 | 21 | 85 | 3.2 | 9.7 | 0.00 | 0.71 | 0.00 | 95 | 1012.9 |
| 20260905134515 | 21 | 70 | 3.2 | 6.4 | 0.00 | 0.71 | 0.00 | 95 | 1013.0 |
| 20260905134016 | 21 | 90 | 1.6 | 6.4 | 0.00 | 0.71 | 0.00 | 95 | 1013.0 |
| 20260905133515 | 21 | 78 | 3.2 | 11.3 | 0.00 | 0.74 | 0.00 | 96 | 1013.0 |
| 20260905133117 | 21 | 83 | 4.8 | 11.3 | 0.00 | 0.74 | 0.00 | 96 | 1012.9 |
| 20260905132515 | 21 | 81 | 3.2 | 11.3 | 0.00 | 0.74 | 0.00 | 96 | 1012.9 |
| 20260905132035 | 21 | 94 | 3.2 | 9.7 | 0.00 | 0.74 | 0.00 | 96 | 1012.8 |
| 20260905131515 | 21 | 65 | 3.2 | 9.7 | 0.00 | 0.76 | 0.00 | 96 | 1012.8 |
| 20260905131015 | 21 | 69 | 3.2 | 8.0 | 0.00 | 0.76 | 0.00 | 96 | 1012.7 |
| 20260905130515 | 21 | 58 | 3.2 | 6.4 | 0.00 | 0.76 | 0.00 | 96 | 1012.8 |
| 20260905130015 | 20 | 90 | 1.6 | 6.4 | 0.00 | 0.79 | 0.00 | 96 | 1012.8 |
| 20260905125515 | 20 | 89 | 1.6 | 6.4 | 0.00 | 0.79 | 0.00 | 96 | 1012.8 |
| 20260905125015 | 20 | 84 | 1.6 | 4.8 | 0.00 | 0.79 | 0.00 | 96 | 1012.7 |
| 20260905124515 | 20 | 107 | 0.0 | 6.4 | 0.00 | 0.81 | 0.00 | 96 | 1012.8 |
| 20260905124035 | 20 | 125 | 1.6 | 9.7 | 0.00 | 0.81 | 0.00 | 96 | 1012.6 |
| 20260905123515 | 20 | 119 | 4.8 | 9.7 | 0.00 | 0.84 | 0.00 | 96 | 1012.5 |
| 20260905123036 | 20 | 105 | 6.4 | 9.7 | 0.00 | 0.84 | 0.00 | 96 | 1012.5 |
| 20260905122538 | 20 | 101 | 3.2 | 9.7 | 0.00 | 0.84 | 0.00 | 96 | 1012.5 |
| 20260905122015 | 20 | 84 | 1.6 | 6.4 | 0.00 | 0.86 | 0.00 | 96 | 1012.5 |
| 20260905121515 | 20 | 74 | 1.6 | 4.8 | 0.00 | 0.86 | 0.00 | 96 | 1012.6 |
| 20260905121015 | 20 | 70 | 3.2 | 4.8 | 0.00 | 0.86 | 0.00 | 96 | 1012.6 |
| 20260905120516 | 20 | 70 | 3.2 | 4.8 | 0.00 | 0.89 | 0.00 | 96 | 1012.6 |
| 20260905120057 | 20 | 79 | 1.6 | 4.8 | 0.00 | 0.89 | 0.00 | 96 | 1012.5 |
| 20260905115515 | 20 | 81 | 1.6 | 4.8 | 0.00 | 0.89 | 0.00 | 96 | 1012.5 |
| 20260905115035 | 20 | 94 | 0.0 | 6.4 | 0.00 | 0.91 | 0.00 | 96 | 1012.4 |
| 20260905114536 | 20 | 95 | 3.2 | 6.4 | 0.00 | 0.91 | 0.00 | 96 | 1012.3 |
| 20260905114015 | 20 | 102 | 3.2 | 6.4 | 0.00 | 0.91 | 0.00 | 96 | 1012.3 |
| 20260905113536 | 20 | 102 | 1.6 | 4.8 | 0.00 | 0.94 | 0.00 | 96 | 1012.3 |
| 20260905113057 | 20 | 84 | 1.6 | 8.0 | 0.00 | 0.94 | 0.00 | 96 | 1012.2 |
| 20260905112515 | 20 | 73 | 3.2 | 8.0 | 0.00 | 0.94 | 0.00 | 96 | 1012.1 |
| 20260905112015 | 20 | 66 | 3.2 | 6.4 | 0.00 | 0.94 | 0.00 | 96 | 1012.1 |
| 20260905111517 | 20 | 69 | 3.2 | 8.0 | 0.00 | 0.94 | 0.00 | 96 | 1012.1 |
| 20260905111015 | 20 | 64 | 3.2 | 8.0 | 0.00 | 0.94 | 0.00 | 96 | 1012.0 |
| 20260905110516 | 20 | 69 | 3.2 | 11.3 | 0.00 | 0.94 | 0.00 | 96 | 1012.1 |
| 20260905110015 | 19 | 58 | 4.8 | 11.3 | 0.00 | 0.94 | 0.00 | 96 | 1012.0 |
| 20260905105515 | 19 | 66 | 6.4 | 11.3 | 0.00 | 0.94 | 0.00 | 96 | 1012.1 |
| 20260905105015 | 19 | 71 | 4.8 | 11.3 | 0.00 | 0.94 | 0.00 | 96 | 1012.1 |
| 20260905104515 | 19 | 65 | 4.8 | 11.3 | 0.00 | 0.94 | 0.00 | 96 | 1012.2 |
| 20260905104015 | 19 | 45 | 4.8 | 8.0 | 0.00 | 0.94 | 0.00 | 96 | 1012.2 |
| 20260905103555 | 19 | 45 | 3.2 | 8.0 | 0.00 | 0.94 | 0.00 | 95 | 1011.9 |
| 20260905103015 | 19 | 69 | 1.6 | 6.4 | 0.00 | 0.94 | 0.00 | 96 | 1011.9 |
| 20260905102535 | 19 | 56 | 0.0 | 6.4 | 0.00 | 0.94 | 0.00 | 96 | 1011.9 |
| 20260905102015 | 18 | 51 | 1.6 | 6.4 | 0.00 | 0.94 | 0.00 | 96 | 1011.9 |
| 20260905101515 | 18 | 48 | 3.2 | 9.7 | 0.00 | 0.94 | 0.00 | 95 | 1011.9 |
| 20260905101015 | 18 | 36 | 3.2 | 9.7 | 0.00 | 0.94 | 0.00 | 95 | 1011.9 |
| 20260905100515 | 18 | 35 | 0.0 | 4.8 | 0.00 | 0.94 | 0.00 | 95 | 1011.8 |
| 20260905100015 | 18 | 0.0 | 0.0 | 0.00 | 0.94 | 0.00 | 95 | 1011.7 | |
| 20260905095515 | 18 | 0.0 | 0.0 | 0.00 | 0.94 | 0.00 | 95 | 1011.7 | |
| 20260905095035 | 18 | 0.0 | 0.0 | 0.00 | 0.94 | 0.00 | 95 | 1011.7 | |
| 20260905094535 | 18 | 0.0 | 0.0 | 0.00 | 0.94 | 0.00 | 95 | 1011.8 | |
| 20260905094015 | 18 | 0.0 | 0.0 | 0.00 | 0.94 | 0.00 | 95 | 1011.8 | |
| 20260905093515 | 18 | 0.0 | 0.0 | 0.00 | 0.94 | 0.00 | 95 | 1011.7 | |
| 20260905093036 | 18 | 0.0 | 0.0 | 0.00 | 0.94 | 0.00 | 94 | 1011.7 | |
| 20260905092516 | 18 | 0.0 | 0.0 | 0.00 | 0.94 | 0.00 | 94 | 1011.8 | |
| 20260905092017 | 18 | 0.0 | 0.0 | 0.00 | 0.94 | 0.00 | 94 | 1011.8 | |
| 20260905091517 | 18 | 0.0 | 0.0 | 0.00 | 0.94 | 0.00 | 94 | 1011.8 | |
| 20260905091017 | 18 | 0.0 | 1.6 | 0.00 | 0.94 | 0.00 | 94 | 1011.7 | |
| 20260905090517 | 19 | 51 | 0.0 | 4.8 | 0.00 | 0.94 | 0.00 | 94 | 1011.6 |
| 20260905090017 | 19 | 56 | 1.6 | 4.8 | 0.00 | 0.94 | 0.00 | 94 | 1011.6 |
| 20260905085517 | 19 | 78 | 1.6 | 3.2 | 0.00 | 0.94 | 0.00 | 94 | 1011.7 |
| 20260905085018 | 19 | 55 | 1.6 | 6.4 | 0.00 | 0.94 | 0.00 | 94 | 1011.7 |
| 20260905084517 | 19 | 26 | 3.2 | 6.4 | 0.00 | 0.94 | 0.00 | 94 | 1011.7 |
| 20260905084017 | 19 | 0.0 | 0.0 | 0.00 | 0.94 | 0.00 | 94 | 1011.6 | |
| 20260905083517 | 19 | 0.0 | 3.2 | 0.00 | 0.94 | 0.00 | 94 | 1011.7 | |
| 20260905083037 | 19 | 130 | 0.0 | 3.2 | 0.00 | 0.94 | 0.00 | 94 | 1011.8 |
| 20260905082517 | 19 | 52 | 0.0 | 3.2 | 0.00 | 0.94 | 0.00 | 94 | 1011.6 |
| 20260905082017 | 19 | 49 | 0.0 | 3.2 | 0.00 | 0.94 | 0.00 | 94 | 1011.5 |
| 20260905081537 | 20 | 0.0 | 4.8 | 0.00 | 0.94 | 0.00 | 94 | 1011.4 | |
| 20260905081038 | 20 | 59 | 1.6 | 4.8 | 0.00 | 0.94 | 0.00 | 94 | 1011.2 |
| 20260905080518 | 20 | 81 | 1.6 | 4.8 | 0.00 | 0.94 | 0.00 | 94 | 1011.2 |
| 20260905080017 | 20 | 88 | 0.0 | 6.4 | 0.00 | 0.94 | 0.00 | 94 | 1011.2 |
| 20260905075518 | 20 | 71 | 3.2 | 8.0 | 0.00 | 0.94 | 0.00 | 94 | 1011.1 |
| 20260905075017 | 20 | 56 | 4.8 | 11.3 | 0.00 | 0.94 | 0.00 | 94 | 1011.1 |
| 20260905074515 | 20 | 66 | 4.8 | 11.3 | 0.00 | 0.94 | 0.00 | 94 | 1011.2 |
| 20260905074017 | 20 | 48 | 4.8 | 9.7 | 0.00 | 0.94 | 0.00 | 94 | 1011.0 |
| 20260905073517 | 20 | 45 | 3.2 | 9.7 | 0.00 | 0.94 | 0.00 | 93 | 1011.0 |
| 20260905073057 | 20 | 55 | 4.8 | 9.7 | 0.00 | 0.94 | 0.00 | 93 | 1010.8 |
| 20260905072538 | 20 | 68 | 4.8 | 9.7 | 0.00 | 0.94 | 0.00 | 93 | 1010.8 |
| 20260905072017 | 20 | 87 | 1.6 | 4.8 | 0.00 | 0.94 | 0.00 | 93 | 1010.5 |
| 20260905071518 | 20 | 79 | 1.6 | 6.4 | 0.00 | 0.94 | 0.00 | 93 | 1010.3 |
| 20260905071017 | 20 | 39 | 3.2 | 8.0 | 0.00 | 0.94 | 0.00 | 93 | 1010.4 |
| 20260905070518 | 20 | 30 | 3.2 | 9.7 | 0.00 | 0.94 | 0.00 | 93 | 1010.6 |
| 20260905070017 | 21 | 19 | 6.4 | 9.7 | 0.00 | 0.94 | 0.00 | 93 | 1010.7 |
| 20260905065517 | 21 | 63 | 3.2 | 6.4 | 0.00 | 0.94 | 0.00 | 92 | 1010.6 |
| 20260905065017 | 21 | 0.0 | 1.6 | 0.00 | 0.94 | 0.00 | 92 | 1010.8 | |
| 20260905064517 | 21 | 233 | 0.0 | 11.3 | 0.00 | 0.94 | 0.00 | 92 | 1011.1 |
| 20260905064017 | 21 | 247 | 1.6 | 11.3 | 0.00 | 0.94 | 0.00 | 93 | 1011.3 |
| 20260905063537 | 21 | 219 | 4.8 | 12.9 | 0.00 | 0.94 | 0.00 | 92 | 1011.6 |
| 20260905063017 | 21 | 173 | 4.8 | 12.9 | 0.00 | 0.94 | 0.00 | 92 | 1011.6 |
| 20260905062536 | 21 | 230 | 4.8 | 12.9 | 0.00 | 0.94 | 0.00 | 92 | 1012.1 |
| 20260905062018 | 21 | 219 | 6.4 | 12.9 | 0.00 | 0.94 | 0.00 | 92 | 1012.2 |
| 20260905061516 | 21 | 217 | 6.4 | 14.5 | 0.00 | 0.94 | 0.00 | 91 | 1012.1 |
| 20260905061017 | 21 | 211 | 6.4 | 14.5 | 0.00 | 0.94 | 0.00 | 91 | 1011.8 |
| 20260905060517 | 21 | 134 | 3.2 | 9.7 | 0.00 | 0.94 | 0.00 | 90 | 1011.2 |
| 20260905060017 | 21 | 97 | 4.8 | 12.9 | 0.00 | 0.94 | 0.00 | 90 | 1010.9 |
| 20260905055536 | 21 | 113 | 4.8 | 14.5 | 0.00 | 0.94 | 0.00 | 90 | 1011.3 |
| 20260905055017 | 21 | 136 | 6.4 | 14.5 | 0.00 | 0.94 | 0.00 | 90 | 1011.6 |
| 20260905054517 | 21 | 125 | 3.2 | 8.0 | 0.00 | 0.94 | 0.00 | 89 | 1011.9 |
| 20260905054017 | 21 | 130 | 3.2 | 8.0 | 0.00 | 0.94 | 0.00 | 89 | 1012.0 |
| 20260905053517 | 21 | 161 | 1.6 | 12.9 | 0.00 | 0.94 | 0.00 | 89 | 1012.3 |
| 20260905053036 | 21 | 157 | 6.4 | 12.9 | 0.00 | 0.94 | 0.00 | 88 | 1012.2 |
| 20260905052516 | 21 | 156 | 3.2 | 9.7 | 0.00 | 0.94 | 0.00 | 88 | 1011.8 |
| 20260905052016 | 21 | 113 | 3.2 | 11.3 | 0.00 | 0.94 | 0.00 | 88 | 1011.8 |
| 20260905051518 | 21 | 93 | 4.8 | 11.3 | 0.00 | 0.94 | 0.00 | 88 | 1011.8 |
| 20260905051017 | 21 | 98 | 4.8 | 9.7 | 0.00 | 0.94 | 0.00 | 88 | 1011.9 |
| 20260905050518 | 21 | 127 | 4.8 | 9.7 | 0.00 | 0.94 | 0.00 | 88 | 1011.9 |
| 20260905050016 | 21 | 115 | 3.2 | 9.7 | 0.00 | 0.94 | 0.00 | 88 | 1011.8 |
| 20260905045518 | 21 | 96 | 4.8 | 9.7 | 0.00 | 0.94 | 0.00 | 89 | 1011.8 |
| 20260905045058 | 21 | 57 | 4.8 | 8.0 | 0.00 | 0.94 | 0.00 | 90 | 1011.7 |
| 20260905044517 | 21 | 298 | 1.6 | 17.7 | 0.00 | 0.94 | 0.00 | 90 | 1012.0 |
| 20260905044038 | 21 | 123 | 8.0 | 22.5 | 0.00 | 0.94 | 0.00 | 91 | 1012.0 |
| 20260905043516 | 21 | 119 | 14.5 | 24.1 | 0.00 | 0.94 | 0.00 | 92 | 1011.7 |
| 20260905043016 | 21 | 153 | 12.9 | 24.1 | 0.00 | 0.94 | 0.00 | 92 | 1011.8 |
| 20260905042516 | 21 | 211 | 8.0 | 16.1 | 0.00 | 0.94 | 0.00 | 93 | 1012.4 |
| 20260905042017 | 21 | 154 | 3.2 | 8.0 | 0.00 | 0.94 | 0.00 | 93 | 1012.5 |
| 20260905041536 | 21 | 147 | 4.8 | 8.0 | 0.00 | 0.94 | 0.00 | 92 | 1012.2 |
| 20260905041016 | 21 | 128 | 3.2 | 8.0 | 0.00 | 0.94 | 0.00 | 92 | 1012.1 |
| 20260905040516 | 21 | 84 | 1.6 | 8.0 | 0.00 | 0.94 | 0.00 | 92 | 1011.9 |
| 20260905040016 | 21 | 71 | 3.2 | 8.0 | 0.00 | 0.94 | 0.94 | 92 | 1011.9 |
| 20260905035517 | 21 | 84 | 3.2 | 11.3 | 0.00 | 0.94 | 0.94 | 92 | 1012.0 |
| 20260905035018 | 21 | 63 | 4.8 | 11.3 | 0.00 | 0.94 | 0.94 | 92 | 1012.0 |
| 20260905034517 | 21 | 84 | 4.8 | 11.3 | 0.00 | 0.94 | 0.94 | 92 | 1012.0 |
| 20260905034017 | 21 | 88 | 4.8 | 11.3 | 0.00 | 0.94 | 0.94 | 92 | 1012.1 |
| 20260905033517 | 21 | 114 | 4.8 | 14.5 | 0.00 | 0.94 | 0.94 | 92 | 1012.2 |
| 20260905033018 | 21 | 102 | 9.7 | 14.5 | 0.00 | 0.94 | 0.94 | 93 | 1012.3 |
| 20260905032517 | 21 | 99 | 3.2 | 9.7 | 0.00 | 0.94 | 0.94 | 93 | 1012.5 |
| 20260905032017 | 21 | 17 | 1.6 | 11.3 | 0.00 | 0.94 | 0.94 | 93 | 1012.5 |
| 20260905031517 | 21 | 89 | 4.8 | 14.5 | 0.00 | 0.94 | 0.94 | 93 | 1012.4 |
| 20260905031017 | 21 | 94 | 8.0 | 14.5 | 0.00 | 0.94 | 0.94 | 93 | 1012.5 |
| 20260905030517 | 21 | 21 | 4.8 | 8.0 | 0.00 | 0.94 | 0.94 | 93 | 1012.7 |
| 20260905030017 | 21 | 57 | 1.6 | 6.4 | 0.00 | 0.94 | 0.94 | 92 | 1012.8 |
| 20260905025518 | 21 | 104 | 3.2 | 6.4 | 0.00 | 0.94 | 0.94 | 92 | 1012.8 |
| 20260905025017 | 21 | 54 | 3.2 | 4.8 | 0.00 | 0.94 | 0.94 | 92 | 1012.9 |
| 20260905024517 | 22 | 80 | 1.6 | 4.8 | 0.00 | 0.94 | 0.94 | 93 | 1012.9 |
| 20260905024017 | 22 | 87 | 1.6 | 6.4 | 0.00 | 0.94 | 0.94 | 93 | 1012.9 |
| 20260905023517 | 22 | 67 | 1.6 | 6.4 | 0.00 | 0.94 | 0.94 | 93 | 1013.0 |
| 20260905023037 | 22 | 84 | 1.6 | 6.4 | 0.00 | 0.94 | 0.94 | 92 | 1012.9 |
| 20260905022517 | 22 | 62 | 1.6 | 6.4 | 0.00 | 0.94 | 0.94 | 92 | 1012.9 |
| 20260905022016 | 22 | 66 | 3.2 | 6.4 | 0.00 | 0.94 | 0.94 | 92 | 1012.8 |
| 20260905021517 | 22 | 78 | 3.2 | 8.0 | 0.00 | 0.94 | 0.94 | 92 | 1012.8 |
| 20260905021017 | 22 | 77 | 3.2 | 8.0 | 0.00 | 0.94 | 0.94 | 92 | 1012.7 |
| 20260905020516 | 22 | 68 | 1.6 | 6.4 | 0.00 | 0.94 | 0.94 | 92 | 1012.7 |
| 20260905020018 | 22 | 66 | 1.6 | 11.3 | 0.00 | 0.94 | 0.94 | 92 | 1012.6 |
| 20260905015516 | 22 | 72 | 4.8 | 11.3 | 0.00 | 0.94 | 0.94 | 91 | 1012.6 |
| 20260905015018 | 22 | 81 | 4.8 | 8.0 | 0.00 | 0.94 | 0.94 | 91 | 1012.5 |
| 20260905014518 | 22 | 68 | 3.2 | 8.0 | 0.00 | 0.94 | 0.94 | 91 | 1012.6 |
| 20260905014018 | 22 | 78 | 3.2 | 6.4 | 0.00 | 0.94 | 0.94 | 91 | 1012.5 |
| 20260905013518 | 22 | 84 | 3.2 | 6.4 | 0.00 | 0.94 | 0.94 | 91 | 1012.5 |
| 20260905013038 | 22 | 87 | 3.2 | 6.4 | 0.00 | 0.94 | 0.94 | 91 | 1012.5 |
| 20260905012537 | 22 | 77 | 3.2 | 11.3 | 0.00 | 0.94 | 0.94 | 91 | 1012.6 |
| 20260905012017 | 22 | 67 | 6.4 | 11.3 | 0.00 | 0.94 | 0.94 | 90 | 1012.5 |
| 20260905011517 | 22 | 71 | 3.2 | 9.7 | 0.00 | 0.94 | 0.94 | 90 | 1012.6 |
| 20260905011018 | 22 | 67 | 4.8 | 9.7 | 0.00 | 0.94 | 0.94 | 90 | 1012.5 |
| 20260905010517 | 22 | 66 | 4.8 | 9.7 | 0.00 | 0.94 | 0.94 | 90 | 1012.3 |
| 20260905010036 | 22 | 57 | 4.8 | 9.7 | 0.00 | 0.94 | 0.94 | 90 | 1012.3 |
| 20260905005518 | 22 | 63 | 4.8 | 8.0 | 0.00 | 0.94 | 0.94 | 90 | 1012.2 |
| 20260905005016 | 22 | 75 | 4.8 | 8.0 | 0.00 | 0.94 | 0.94 | 90 | 1012.1 |
| 20260905004518 | 22 | 69 | 3.2 | 8.0 | 0.00 | 0.94 | 0.94 | 89 | 1012.1 |
| 20260905004016 | 22 | 62 | 4.8 | 11.3 | 0.00 | 0.94 | 0.94 | 89 | 1012.2 |
| 20260905003518 | 22 | 84 | 4.8 | 11.3 | 0.00 | 0.94 | 0.94 | 89 | 1012.1 |
| 20260905003016 | 23 | 81 | 3.2 | 8.0 | 0.00 | 0.94 | 0.94 | 89 | 1012.2 |
| 20260905002516 | 23 | 74 | 4.8 | 8.0 | 0.00 | 0.94 | 0.94 | 89 | 1012.3 |
| 20260905002016 | 23 | 67 | 1.6 | 8.0 | 0.00 | 0.94 | 0.94 | 88 | 1012.2 |
| 20260905001517 | 23 | 63 | 3.2 | 8.0 | 0.00 | 0.94 | 0.94 | 88 | 1012.3 |
| 20260905001017 | 23 | 70 | 4.8 | 9.7 | 0.00 | 0.94 | 0.94 | 87 | 1012.3 |
| 20260905000517 | 23 | 73 | 4.8 | 9.7 | 0.00 | 0.94 | 0.94 | 87 | 1012.3 |
| 20260905000016 | 23 | 76 | 3.2 | 6.4 | 0.00 | 0.94 | 0.94 | 86 | 1012.2 |
| 20260904235536 | 23 | 78 | 3.2 | 6.4 | 0.00 | 0.94 | 0.94 | 86 | 1012.3 |
| 20260904235016 | 24 | 84 | 4.8 | 11.3 | 0.00 | 0.94 | 0.94 | 85 | 1012.1 |
| 20260904234516 | 24 | 92 | 4.8 | 11.3 | 0.00 | 0.94 | 0.94 | 85 | 1012.1 |
| 20260904234016 | 24 | 99 | 8.0 | 11.3 | 0.00 | 0.94 | 0.94 | 84 | 1012.1 |
| 20260904233538 | 25 | 99 | 6.4 | 11.3 | 0.00 | 0.94 | 0.94 | 84 | 1012.2 |
| 20260904233016 | 25 | 95 | 6.4 | 11.3 | 0.00 | 0.94 | 0.94 | 84 | 1012.2 |
| 20260904232516 | 25 | 87 | 4.8 | 11.3 | 0.00 | 0.94 | 0.94 | 83 | 1012.2 |
| 20260904232016 | 25 | 93 | 6.4 | 11.3 | 0.00 | 0.94 | 0.94 | 83 | 1012.2 |
| 20260904231516 | 25 | 82 | 3.2 | 6.4 | 0.00 | 0.94 | 0.94 | 83 | 1012.3 |
| 20260904231016 | 25 | 77 | 3.2 | 6.4 | 0.00 | 0.94 | 0.94 | 83 | 1012.3 |
| 20260904230537 | 25 | 84 | 3.2 | 8.0 | 0.00 | 0.94 | 0.94 | 83 | 1012.2 |
| 20260904230037 | 25 | 68 | 3.2 | 11.3 | 0.00 | 0.94 | 0.94 | 83 | 1012.3 |
| 20260904225516 | 25 | 74 | 4.8 | 11.3 | 0.00 | 0.94 | 0.94 | 82 | 1012.2 |
| 20260904225036 | 25 | 92 | 4.8 | 9.7 | 0.00 | 0.94 | 0.94 | 82 | 1012.2 |
| 20260904224536 | 25 | 88 | 3.2 | 9.7 | 0.00 | 0.94 | 0.94 | 82 | 1012.1 |
| 20260904224018 | 25 | 64 | 1.6 | 9.7 | 0.00 | 0.94 | 0.94 | 83 | 1012.1 |
| 20260904223516 | 25 | 59 | 4.8 | 12.9 | 0.00 | 0.94 | 0.94 | 82 | 1012.1 |
| 20260904223016 | 25 | 71 | 6.4 | 12.9 | 0.00 | 0.94 | 0.94 | 81 | 1012.0 |
| 20260904222517 | 25 | 45 | 6.4 | 14.5 | 0.00 | 0.94 | 0.94 | 82 | 1012.0 |
| 20260904222017 | 25 | 41 | 6.4 | 14.5 | 0.00 | 0.94 | 0.94 | 83 | 1011.9 |
| 20260904221516 | 25 | 43 | 8.0 | 11.3 | 0.00 | 0.94 | 0.94 | 82 | 1011.8 |
| 20260904221018 | 25 | 39 | 3.2 | 9.7 | 0.00 | 0.94 | 0.94 | 83 | 1011.8 |
| 20260904220518 | 25 | 39 | 4.8 | 9.7 | 0.00 | 0.94 | 0.94 | 82 | 1011.9 |
| 20260904220016 | 25 | 42 | 4.8 | 9.7 | 0.00 | 0.94 | 0.94 | 80 | 1011.8 |
| 20260904215516 | 25 | 69 | 4.8 | 11.3 | 0.00 | 0.94 | 0.94 | 79 | 1011.7 |
| 20260904215038 | 26 | 47 | 6.4 | 11.3 | 0.00 | 0.94 | 0.94 | 80 | 1011.6 |
| 20260904214516 | 26 | 37 | 4.8 | 9.7 | 0.00 | 0.94 | 0.94 | 80 | 1011.6 |
| 20260904214016 | 26 | 50 | 3.2 | 9.7 | 0.03 | 0.97 | 0.94 | 80 | 1011.5 |
| 20260904213516 | 25 | 91 | 4.8 | 12.9 | 0.03 | 0.97 | 0.94 | 80 | 1011.6 |
| 20260904213016 | 25 | 15 | 6.4 | 12.9 | 0.03 | 0.97 | 0.94 | 80 | 1011.7 |
| 20260904212516 | 25 | 35 | 6.4 | 12.9 | 0.03 | 0.97 | 0.94 | 80 | 1011.6 |
| 20260904212057 | 25 | 41 | 6.4 | 9.7 | 0.03 | 0.97 | 0.94 | 81 | 1011.5 |
| 20260904211516 | 25 | 33 | 6.4 | 11.3 | 0.03 | 0.97 | 0.94 | 82 | 1011.6 |
| 20260904211036 | 25 | 27 | 6.4 | 11.3 | 0.05 | 0.97 | 0.94 | 82 | 1011.6 |
| 20260904210517 | 25 | 38 | 4.8 | 8.0 | 0.05 | 0.97 | 0.94 | 82 | 1011.7 |
| 20260904210016 | 25 | 24 | 3.2 | 8.0 | 0.05 | 0.99 | 0.94 | 81 | 1011.7 |
| 20260904205516 | 25 | 66 | 1.6 | 6.4 | 0.05 | 0.99 | 0.94 | 80 | 1011.8 |
| 20260904205016 | 25 | 73 | 3.2 | 6.4 | 0.05 | 0.99 | 0.94 | 80 | 1011.6 |
| 20260904204516 | 25 | 59 | 1.6 | 4.8 | 0.05 | 0.99 | 0.94 | 80 | 1011.5 |
| 20260904204016 | 25 | 21 | 0.0 | 3.2 | 0.05 | 0.97 | 0.91 | 82 | 1011.7 |
| 20260904203516 | 25 | 16 | 0.0 | 8.0 | 0.05 | 0.97 | 0.91 | 81 | 1011.7 |
| 20260904203017 | 25 | 345 | 3.2 | 8.0 | 0.05 | 0.97 | 0.91 | 82 | 1011.9 |
| 20260904202517 | 25 | 351 | 3.2 | 8.0 | 0.05 | 0.97 | 0.91 | 82 | 1012.0 |
| 20260904202016 | 25 | 320 | 1.6 | 4.8 | 0.08 | 0.97 | 0.91 | 82 | 1012.1 |
| 20260904201517 | 24 | 245 | 0.0 | 4.8 | 0.08 | 0.97 | 0.91 | 83 | 1012.1 |
| 20260904201016 | 24 | 228 | 1.6 | 4.8 | 0.05 | 0.97 | 0.89 | 83 | 1012.2 |
| 20260904200516 | 24 | 241 | 1.6 | 4.8 | 0.08 | 0.97 | 0.89 | 84 | 1012.3 |
| 20260904200016 | 23 | 289 | 0.0 | 6.4 | 0.08 | 0.97 | 0.89 | 85 | 1012.1 |
| 20260904195517 | 23 | 153 | 1.6 | 6.4 | 0.08 | 0.97 | 0.89 | 86 | 1012.0 |
| 20260904195016 | 23 | 107 | 1.6 | 9.7 | 0.08 | 0.97 | 0.89 | 87 | 1012.1 |
| 20260904194517 | 23 | 93 | 3.2 | 9.7 | 0.10 | 0.97 | 0.89 | 87 | 1012.0 |
| 20260904194037 | 23 | 130 | 3.2 | 9.7 | 0.08 | 0.94 | 0.86 | 87 | 1012.0 |
| 20260904193517 | 23 | 102 | 4.8 | 9.7 | 0.10 | 0.94 | 0.86 | 88 | 1011.9 |
| 20260904193016 | 23 | 106 | 3.2 | 11.3 | 0.10 | 0.94 | 0.86 | 88 | 1012.0 |
| 20260904192516 | 23 | 128 | 3.2 | 11.3 | 0.10 | 0.94 | 0.86 | 88 | 1012.1 |
| 20260904192016 | 22 | 148 | 1.6 | 9.7 | 0.10 | 0.94 | 0.84 | 89 | 1012.3 |
| 20260904191537 | 22 | 103 | 3.2 | 14.5 | 0.10 | 0.94 | 0.84 | 90 | 1012.3 |
| 20260904191017 | 22 | 111 | 4.8 | 14.5 | 0.10 | 0.94 | 0.84 | 90 | 1012.2 |
| 20260904190538 | 22 | 119 | 6.4 | 12.9 | 0.10 | 0.91 | 0.81 | 90 | 1012.2 |
| 20260904190016 | 22 | 97 | 4.8 | 11.3 | 0.10 | 0.91 | 0.81 | 91 | 1012.3 |
| 20260904185516 | 22 | 83 | 3.2 | 12.9 | 0.10 | 0.91 | 0.81 | 91 | 1012.7 |
| 20260904185016 | 22 | 117 | 8.0 | 12.9 | 0.13 | 0.91 | 0.81 | 90 | 1012.3 |
| 20260904184516 | 22 | 141 | 4.8 | 12.9 | 0.10 | 0.91 | 0.79 | 91 | 1012.5 |
| 20260904184016 | 22 | 171 | 4.8 | 12.9 | 0.13 | 0.91 | 0.79 | 92 | 1012.6 |
| 20260904183516 | 21 | 197 | 3.2 | 6.4 | 0.10 | 0.89 | 0.76 | 92 | 1012.6 |
| 20260904183016 | 21 | 156 | 0.0 | 6.4 | 0.13 | 0.89 | 0.76 | 93 | 1012.9 |
| 20260904182516 | 21 | 188 | 1.6 | 6.4 | 0.13 | 0.89 | 0.76 | 93 | 1013.0 |
| 20260904182016 | 21 | 212 | 1.6 | 6.4 | 0.13 | 0.86 | 0.71 | 93 | 1012.7 |
| 20260904181536 | 21 | 182 | 1.6 | 6.4 | 0.13 | 0.86 | 0.71 | 94 | 1012.6 |
| 20260904181017 | 21 | 157 | 1.6 | 6.4 | 0.13 | 0.86 | 0.71 | 94 | 1012.4 |
| 20260904180537 | 21 | 235 | 0.0 | 14.5 | 0.13 | 0.84 | 0.71 | 94 | 1012.4 |
| 20260904180016 | 21 | 202 | 4.8 | 14.5 | 0.13 | 0.84 | 0.71 | 94 | 1012.4 |
| 20260904175516 | 21 | 200 | 6.4 | 16.1 | 0.15 | 0.84 | 0.71 | 94 | 1012.2 |
| 20260904175036 | 21 | 143 | 9.7 | 16.1 | 0.13 | 0.81 | 0.69 | 94 | 1012.0 |
| 20260904174517 | 20 | 163 | 4.8 | 11.3 | 0.13 | 0.81 | 0.69 | 94 | 1012.4 |
| 20260904174016 | 20 | 72 | 3.2 | 9.7 | 0.13 | 0.79 | 0.66 | 94 | 1013.0 |
| 20260904173516 | 20 | 31 | 4.8 | 14.5 | 0.13 | 0.79 | 0.66 | 95 | 1013.3 |
| 20260904173016 | 20 | 242 | 4.8 | 14.5 | 0.13 | 0.76 | 0.64 | 95 | 1013.4 |
| 20260904172517 | 20 | 225 | 4.8 | 14.5 | 0.13 | 0.76 | 0.64 | 95 | 1012.9 |
| 20260904172016 | 20 | 262 | 3.2 | 14.5 | 0.13 | 0.74 | 0.61 | 95 | 1012.8 |
| 20260904171516 | 20 | 238 | 4.8 | 14.5 | 0.13 | 0.74 | 0.61 | 95 | 1012.6 |
| 20260904171015 | 19 | 158 | 4.8 | 16.1 | 0.13 | 0.74 | 0.61 | 94 | 1011.8 |
| 20260904170516 | 19 | 232 | 6.4 | 20.9 | 0.13 | 0.71 | 0.58 | 95 | 1011.8 |
| 20260904170015 | 19 | 194 | 9.7 | 40.2 | 0.13 | 0.71 | 0.58 | 95 | 1011.3 |
| 20260904165537 | 19 | 173 | 16.1 | 40.2 | 0.10 | 0.69 | 0.56 | 95 | 1010.1 |
| 20260904165016 | 19 | 167 | 19.3 | 30.6 | 0.13 | 0.69 | 0.56 | 95 | 1010.3 |
| 20260904164515 | 19 | 164 | 16.1 | 29.0 | 0.13 | 0.69 | 0.56 | 95 | 1010.9 |
| 20260904164016 | 19 | 165 | 16.1 | 27.4 | 0.10 | 0.66 | 0.53 | 95 | 1011.5 |
| 20260904163517 | 19 | 163 | 17.7 | 27.4 | 0.13 | 0.66 | 0.53 | 95 | 1011.8 |
| 20260904163016 | 20 | 165 | 12.9 | 22.5 | 0.10 | 0.64 | 0.51 | 95 | 1012.6 |
| 20260904162515 | 20 | 191 | 9.7 | 17.7 | 0.10 | 0.64 | 0.51 | 95 | 1013.5 |
| 20260904162036 | 20 | 197 | 8.0 | 19.3 | 0.10 | 0.61 | 0.48 | 96 | 1013.8 |
| 20260904161516 | 20 | 234 | 12.9 | 29.0 | 0.10 | 0.61 | 0.48 | 96 | 1014.3 |
| 20260904161017 | 20 | 243 | 17.7 | 40.2 | 0.13 | 0.61 | 0.48 | 96 | 1014.9 |
| 20260904160517 | 20 | 249 | 22.5 | 40.2 | 0.10 | 0.58 | 0.46 | 96 | 1015.0 |
| 20260904160015 | 20 | 266 | 17.7 | 33.8 | 0.10 | 0.58 | 0.46 | 96 | 1014.9 |
| 20260904155516 | 20 | 234 | 8.0 | 16.1 | 0.13 | 0.58 | 0.46 | 96 | 1014.0 |
| 20260904155036 | 20 | 192 | 4.8 | 14.5 | 0.10 | 0.56 | 0.43 | 96 | 1013.3 |
| 20260904154515 | 20 | 158 | 8.0 | 14.5 | 0.10 | 0.56 | 0.43 | 96 | 1013.2 |
| 20260904154036 | 20 | 134 | 4.8 | 14.5 | 0.13 | 0.56 | 0.43 | 96 | 1013.5 |
| 20260904153515 | 20 | 146 | 6.4 | 22.5 | 0.10 | 0.53 | 0.41 | 96 | 1013.7 |
| 20260904153016 | 20 | 168 | 8.0 | 22.5 | 0.10 | 0.53 | 0.41 | 96 | 1013.8 |
| 20260904152515 | 20 | 169 | 9.7 | 25.7 | 0.10 | 0.53 | 0.41 | 96 | 1013.7 |
| 20260904152016 | 20 | 170 | 11.3 | 25.7 | 0.10 | 0.51 | 0.38 | 96 | 1013.9 |
| 20260904151515 | 20 | 157 | 9.7 | 20.9 | 0.10 | 0.51 | 0.38 | 96 | 1013.9 |
| 20260904151038 | 20 | 130 | 11.3 | 16.1 | 0.08 | 0.48 | 0.36 | 96 | 1014.1 |
| 20260904150515 | 20 | 126 | 9.7 | 14.5 | 0.10 | 0.48 | 0.36 | 96 | 1014.3 |
| 20260904150037 | 20 | 99 | 6.4 | 9.7 | 0.10 | 0.48 | 0.36 | 96 | 1014.7 |
| 20260904145515 | 20 | 106 | 3.2 | 6.4 | 0.08 | 0.46 | 0.33 | 96 | 1014.9 |
| 20260904145017 | 20 | 93 | 3.2 | 11.3 | 0.10 | 0.46 | 0.33 | 96 | 1014.9 |
| 20260904144515 | 20 | 99 | 4.8 | 14.5 | 0.10 | 0.46 | 0.33 | 96 | 1014.7 |
| 20260904144015 | 20 | 90 | 8.0 | 14.5 | 0.08 | 0.43 | 0.30 | 96 | 1014.6 |
| 20260904143515 | 20 | 73 | 3.2 | 8.0 | 0.10 | 0.43 | 0.30 | 96 | 1014.8 |
| 20260904143015 | 20 | 62 | 4.8 | 12.9 | 0.10 | 0.43 | 0.30 | 96 | 1015.0 |
| 20260904142515 | 20 | 63 | 6.4 | 12.9 | 0.10 | 0.43 | 0.30 | 96 | 1014.8 |
| 20260904142015 | 20 | 79 | 6.4 | 12.9 | 0.08 | 0.41 | 0.28 | 96 | 1014.4 |
| 20260904141515 | 20 | 95 | 8.0 | 11.3 | 0.10 | 0.41 | 0.28 | 96 | 1014.4 |
| 20260904141017 | 20 | 100 | 3.2 | 6.4 | 0.10 | 0.41 | 0.28 | 96 | 1014.9 |
| 20260904140515 | 20 | 138 | 3.2 | 9.7 | 0.08 | 0.38 | 0.25 | 96 | 1015.0 |
| 20260904140015 | 20 | 115 | 3.2 | 9.7 | 0.10 | 0.38 | 0.25 | 96 | 1015.1 |